Aérodrome :
LOGIN :

S'inscrire | Disclaimer

   EN    FR    IT 

 










Légende :    VFR   VFR Marginal   IFR   IFR Intensif   IFR Très Intensif
Visi : 
Plafond : 
>= 8 km
>= 3000ft
5 à 8 km
1000 à 3000 ft
1500m à 5 km
500 à 1000 ft
800 à 1500m
200 à 500 ft
< 800m
< 200 ft
Symboles :   Orages  Brouillard  Fortes neiges  Fortes précipitations  Vent > 20 kt
SIGMETs :   Divers  Orages  Givrage  Turbulence  Onde Orograph.  Cendres Volcan.






- Altitude de l'aérodrome : 82 ft
- Code IATA : QIE


LFMI - Istres

DERNIER METAR :
  • 151300Z AUTO 27017KT 9999 // SCT048 21/10 Q1012

METARs EXPIRÉS :
  • 151230Z AUTO 26016KT 9999 // FEW045 20/10 Q1012
  • 151200Z AUTO 26017KT 9999 // NSC 20/10 Q1012
  • 151130Z AUTO 27014KT 9999 // NSC 19/10 Q1012
  • 151100Z AUTO 27016KT 9999 // NSC 19/11 Q1012
  • 151030Z AUTO 27018KT 9999 // NSC 19/11 Q1012

TAF TAF LFMI
Valide du 15 à 09h jusqu'au 16 à 09h UTC


150800Z 1509/1609 25010KT 9999 BKN020 BKN050
BECMG 1509/1510 30015KT
BECMG 1518/1520 30008KT



MET'MAP, la Météo Aéronautique d'un coup d'oeil ! - Copyright ORBIFLY Décembre 2007 - Disclaimer

ORBIFLY MET'MAP TEAM :

Programmation & Développement : Alexandra Zaïnal
Conception & Développement : Baudouin d'Aumeries
Co-Programmation & Développement : Marc-Olivier Méhu
Soutien technique & logistique : Manuel Goepfert

Contact : metmap@orbifly.com




SOURCES & CREDITS :

   NOAA